Location: Bailleul
(50.3375°N, 2.8513°E)
Time: 04:01:15
(UTC+00:00)

Cosmos 1980 - Pass Details

Date: 25 October 2021
Orbit: 839 x 847 km, 71.0° (Epoch: 01 December)

Event Time Altitude Azimuth Distance (km) Brightness Sun altitude
Exits shadow 03:08:32 - 343° (NNW) 2,811 6.4 -31.9°
Reaches altitude 10° 03:10:00 10° 354° (N) 2,471 6.3 -31.7°
Maximum altitude 03:13:16 15° 29° (NNE) 2,112 6.3 -31.2°
Drops below altitude 10° 03:16:32 10° 65° (ENE) 2,470 7.0 -30.8°
Sets 03:20:06 0° 87° (E) 3,404 7.9 -30.2°
